Dewpoint
-3 -3 -6 -5 -4 -4 -1 -3 3 -1 -4 -8 -10 -10 -10 -9 -7 -7 -7 -6 -7 -5 -1 1 3 3 3 3 4 4 3 3 3 2 2 1 -1 -1 -1 -1 -0 -1 -3 -4
-0 -5 -7 -7 -7 -8 -8 -9 -5 -4 -4 -11 -12 -12 -11 -10 -8 -8 -8 -7 -6 -7 -5 -1 1 2 3 3 3 3 3 2 2 2 1 -0 -1 -1 -2 -1 -1 -2 -3 -4
-2 -3 -1 -6 -7 -7 -9 -10 -8 -7 -9 -12 -12 -13 -12 -11 -9 -10 -9 -8 -7 -7 -7 -2 -1 1 1 2 2 2 2 2 1 1 0 -1 -1 -2 -2 -2 -2 -3 -3 -3
-1 -1 -2 -7 -10 -8 -9 -10 -10 -11 -12 -13 -13 -13 -12 -8 -10 -10 -10 -9 -7 -7 -6 -2 -1 -0 0 1 1 1 1 1 1 0 -0 -1 -2 -2 -2 -2 -2 -2 -3 -4
-1 -4 -5 -6 -9 -10 -9 -8 -12 -12 -13 -14 -14 -13 -8 -8 -11 -10 -10 -9 -8 -8 -6 -3 -2 -0 -0 -0 -0 0 0 0 -0 -1 -1 -1 -2 -2 -2 -2 -3 -3 -4 -4
-1 -3 -3 -9 -11 -10 -10 -7 -12 -13 -13 -13 -14 -11 -11 -12 -12 -10 -10 -8 -8 -8 -7 -4 -3 -2 -1 -0 -1 -1 -1 -1 -1 -1 -2 -2 -2 -2 -2 -3 -3 -4 -5 -5
-4 -3 -7 -11 -12 -12 -6 -8 -13 -13 -13 -13 -13 -12 -12 -12 -11 -10 -9 -9 -8 -8 -8 -5 -3 -3 -2 -1 -1 -1 -1 -1 -1 -2 -3 -3 -3 -3 -3 -3 -4 -5 -6 -8
-8 -6 -5 -13 -14 -11 -13 -14 -14 -14 -13 -13 -13 -13 -12 -12 -11 -10 -9 -9 -9 -9 -8 -6 -4 -4 -4 -2 -2 -1 -1 -2 -2 -3 -4 -4 -3 -4 -4 -5 -6 -7 -9 -5
-9 -8 -13 -12 -13 -14 -14 -14 -14 -14 -14 -13 -13 -13 -12 -12 -11 -10 -10 -10 -10 -9 -8 -7 -5 -4 -5 -4 -2 -2 -3 -3 -4 -4 -4 -4 -4 -4 -6 -7 -7 -9 -6 -6
-13 -12 -16 -13 -12 -16 -15 -14 -15 -15 -14 -14 -13 -13 -13 -12 -12 -11 -11 -10 -10 -10 -9 -8 -7 -6 -5 -5 -4 -3 -4 -4 -4 -5 -5 -6 -6 -6 -7 -10 -8 -5 -7 -8
-15 -17 -17 -14 -15 -16 -15 -15 -15 -15 -14 -14 -14 -13 -13 -13 -12 -11 -11 -11 -10 -10 -9 -9 -8 -7 -7 -6 -6 -6 -5 -5 -6 -7 -6 -7 -8 -9 -9 -6 -4 -6 -7 -6
-14 -17 -15 -16 -16 -15 -15 -15 -15 -15 -14 -14 -14 -14 -13 -12 -12 -12 -11 -11 -11 -10 -10 -10 -9 -8 -8 -8 -7 -7 -7 -7 -8 -8 -8 -8 -9 -9 -6 -6 -6 -6 -6 -7
-15 -15 -15 -15 -15 -14 -15 -15 -15 -15 -15 -15 -14 -14 -14 -13 -12 -11 -12 -11 -11 -11 -10 -10 -10 -9 -9 -9 -8 -8 -8 -8 -9 -9 -9 -9 -7 -7 -8 -8 -8 -8 -8 -9
-15 -15 -16 -15 -15 -16 -16 -16 -16 -15 -15 -15 -15 -14 -14 -13 -13 -12 -12 -12 -11 -11 -11 -10 -10 -10 -10 -10 -9 -9 -8 -8 -9 -8 -8 -7 -8 -8 -8 -9 -10 -10 -9 -10
-14 -15 -16 -16 -16 -16 -15 -15 -15 -15 -15 -15 -14 -14 -14 -14 -13 -13 -12 -11 -11 -11 -11 -10 -10 -10 -10 -10 -10 -10 -9 -9 -9 -8 -8 -8 -8 -9 -9 -10 -9 -10 -10 -10
-15 -15 -15 -16 -16 -16 -15 -15 -16 -15 -15 -15 -14 -14 -14 -13 -13 -13 -12 -12 -11 -11 -11 -10 -10 -10 -10 -10 -10 -9 -9 -9 -9 -9 -9 -9 -9 -10 -10 -10 -10 -10 -11 -12
-16 -16 -16 -17 -16 -16 -15 -15 -15 -15 -15 -14 -14 -14 -14 -13 -13 -13 -12 -12 -11 -11 -11 -11 -11 -10 -10 -10 -10 -10 -10 -9 -9 -9 -9 -9 -10 -10 -10 -10 -11 -11 -12 -14
-16 -16 -16 -16 -16 -16 -16 -15 -15 -15 -14 -14 -14 -14 -14 -13 -13 -13 -12 -12 -12 -12 -11 -11 -11 -11 -10 -10 -10 -10 -10 -10 -10 -9 -10 -10 -10 -10 -11 -11 -11 -13 -15 -17
-16 -16 -16 -16 -16 -16 -15 -15 -15 -15 -14 -14 -14 -14 -14 -13 -13 -13 -13 -13 -12 -12 -12 -11 -11 -11 -11 -10 -10 -10 -10 -10 -10 -10 -10 -11 -11 -11 -11 -12 -14 -16 -20 -21
-16 -16 -16 -16 -16 -16 -16 -16 -15 -15 -15 -15 -15 -14 -14 -14 -13 -13 -13 -13 -13 -12 -12 -12 -12 -11 -11 -11 -11 -11 -11 -11 -11 -11 -11 -11 -11 -11 -11 -12 -13 -20 -21 -21
-17 -16 -16 -16 -16 -16 -16 -16 -16 -16 -15 -15 -15 -14 -14 -14 -14 -14 -13 -13 -13 -13 -13 -12 -12 -12 -12 -11 -11 -11 -11 -11 -11 -12 -12 -12 -12 -12 -13 -19 -21 -21 -21 -21
-17 -17 -17 -17 -17 -16 -16 -16 -16 -16 -15 -15 -15 -15 -14 -14 -14 -14 -14 -13 -13 -13 -13 -13 -12 -12 -12 -12 -11 -11 -11 -11 -12 -12 -12 -12 -12 -16 -20 -20 -20 -20 -20 -20
-18 -17 -17 -17 -17 -17 -17 -16 -16 -16 -16 -16 -15 -15 -15 -14 -14 -14 -13 -14 -14 -13 -13 -13 -13 -12 -12 -12 -12 -12 -12 -12 -12 -12 -12 -13 -17 -20 -19 -19 -19 -19 -19 -19
-18 -18 -17 -17 -17 -17 -17 -17 -17 -17 -17 -16 -16 -15 -15 -15 -14 -14 -14 -14 -15 -14 -14 -14 -13 -13 -13 -12 -12 -12 -13 -13 -13 -13 -14 -16 -15 -15 -17 -18 -18 -18 -18 -18
-18 -18 -18 -18 -18 -18 -17 -17 -17 -17 -17 -17 -17 -16 -16 -16 -15 -15 -15 -15 -15 -15 -15 -14 -14 -13 -13 -13 -13 -13 -13 -13 -13 -14 -14 -14 -15 -16 -16 -17 -17 -17 -17 -18
-19 -19 -18 -18 -18 -18 -18 -18 -18 -17 -17 -17 -17 -17 -17 -16 -16 -16 -16 -16 -16 -15 -15 -15 -15 -14 -14 -14 -14 -14 -14 -14 -14 -14 -14 -14 -14 -15 -15 -16 -16 -17 -17 -17
-20 -19 -19 -19 -19 -19 -18 -18 -18 -18 -18 -18 -18 -18 -17 -17 -17 -17 -17 -16 -16 -16 -16 -15 -15 -15 -15 -15 -15 -15 -15 -14 -14 -15 -15 -15 -15 -15 -16 -16 -16 -17 -17 -17
Wind_Speed
9 12 19 19 14 16 11 10 1 2 5 14 18 19 18 23 26 25 25 26 24 25 22 14 7 4 10 17 24 29 32 35 36 39 41 42 42 45 48 47 45 45 46 44
14 18 21 17 22 12 15 14 8 13 7 20 20 21 21 23 25 27 27 27 27 24 21 15 10 4 8 15 21 26 29 32 35 37 40 42 43 46 45 44 45 47 47 44
5 9 8 9 18 12 11 16 11 8 12 21 20 19 20 21 21 27 31 30 28 26 24 23 11 8 9 13 20 23 27 32 36 39 41 41 44 44 44 44 47 49 47 43
2 9 3 6 13 7 8 11 14 12 16 19 24 32 25 6 27 30 31 32 32 28 30 24 12 7 10 13 18 25 28 32 36 36 39 43 43 42 43 45 47 47 45 41
3 8 9 3 9 9 6 5 15 18 20 24 34 29 13 20 33 31 31 30 30 29 30 23 12 10 11 14 17 24 28 31 33 37 40 41 41 42 43 46 48 46 42 39
3 4 4 4 16 16 7 5 18 20 18 21 28 12 8 38 46 37 29 29 29 26 26 19 12 11 12 15 19 24 27 29 30 33 36 39 40 42 43 45 45 43 41 36
8 3 4 12 18 13 3 8 25 25 23 23 12 13 35 39 37 33 32 29 26 23 21 19 13 10 14 17 20 20 22 25 27 30 33 36 39 41 44 45 44 42 38 33
5 4 2 24 6 6 9 19 24 24 24 25 25 28 30 33 34 34 34 33 28 27 24 18 12 9 13 16 17 18 20 23 26 29 32 35 38 40 41 44 44 41 37 33
4 3 3 5 10 8 12 20 23 25 26 26 28 28 30 32 31 29 28 30 25 24 24 19 13 9 13 17 18 19 20 24 28 31 34 35 37 41 44 44 43 40 35 32
5 3 14 6 8 21 21 21 24 23 25 25 28 28 30 30 31 28 27 27 25 21 18 16 12 10 12 18 18 20 25 28 30 31 33 34 36 41 45 45 43 38 35 32
4 7 12 7 17 22 25 24 23 23 22 24 24 26 25 30 29 28 26 25 21 18 15 12 9 8 11 15 20 27 26 27 29 30 33 36 39 42 44 38 36 34 29 27
2 9 9 18 22 23 24 25 25 25 26 23 23 24 25 25 24 25 24 21 19 16 12 10 7 5 7 13 20 24 25 27 30 32 34 37 39 36 28 26 24 24 25 24
6 14 16 16 16 16 22 24 25 24 23 24 23 23 22 22 20 20 19 18 18 16 11 10 7 3 4 8 12 17 22 27 30 31 33 35 34 35 33 25 23 23 22 20
3 14 5 8 12 19 20 21 21 20 18 19 20 21 20 20 20 19 18 16 16 13 9 7 5 3 2 8 12 16 20 26 29 31 34 35 35 36 34 33 31 27 22 21
10 12 12 16 18 17 18 20 21 22 23 23 22 22 21 20 20 19 17 13 12 10 8 7 7 4 3 8 15 21 25 27 30 35 36 37 36 35 36 36 35 31 27 21
15 13 14 14 16 19 19 20 21 23 22 24 24 23 21 17 17 17 15 13 12 11 10 9 9 6 3 8 15 20 23 29 34 37 37 38 39 39 36 36 34 31 26 20
12 13 18 19 19 20 19 18 18 19 20 20 20 20 19 18 17 16 15 14 12 12 12 11 10 7 7 9 14 20 24 26 31 34 35 35 34 33 31 30 28 23 19 16
10 10 11 14 18 19 20 18 18 17 18 18 17 18 18 18 17 16 14 13 16 17 16 13 9 8 9 11 14 19 23 25 28 31 32 31 31 30 28 26 24 22 20 17
12 12 12 12 14 17 18 18 17 17 16 16 16 16 16 16 15 15 13 15 16 17 15 12 9 9 9 10 13 17 20 25 28 28 28 29 28 27 25 23 21 20 17 14
13 12 13 12 12 14 17 16 16 15 15 15 14 14 16 16 15 14 14 17 16 13 10 9 9 9 9 8 12 17 22 25 26 27 28 28 27 25 22 20 19 16 14 12
14 14 14 14 13 14 15 16 16 15 15 14 14 14 14 13 15 14 14 16 15 11 9 7 8 8 9 9 13 17 21 24 26 26 26 25 24 22 21 19 17 14 11 9
14 14 14 14 14 14 14 15 14 13 13 13 13 12 12 13 12 16 16 15 14 12 12 10 9 8 9 12 15 18 20 21 23 23 22 22 21 20 18 16 13 12 8 6
14 12 12 14 13 12 12 13 13 13 13 12 12 11 13 16 15 18 16 14 13 11 12 10 5 5 9 13 16 18 19 20 21 21 22 22 19 17 14 11 9 8 6 4
14 13 11 12 12 10 11 12 12 12 12 10 9 8 7 7 9 9 9 9 11 11 11 8 6 5 7 11 14 16 18 18 19 19 20 18 16 13 11 9 7 5 3 1
13 11 12 13 11 11 11 11 10 10 11 10 9 7 7 7 8 8 7 8 9 7 5 5 5 5 7 10 12 13 15 16 17 16 14 13 11 10 8 6 5 3 2 2
14 12 12 12 10 10 9 11 9 9 11 11 10 10 8 7 7 6 6 5 5 6 5 4 5 6 8 10 12 13 13 13 12 12 9 7 7 6 5 4 4 4 4 6
12 11 12 10 8 10 9 9 8 7 9 13 11 9 8 7 7 7 6 5 3 3 2 2 3 4 6 8 9 10 10 10 9 9 8 7 6 6 6 6 6 6 7 9
Wind_Direction
293 104 66 45 34 26 45 13 331 329 91 24 357 346 344 349 355 1 4 6 5 358 360 2 349 234 206 201 199 199 197 194 194 194 195 194 195 199 208 215 215 212 208 206
89 107 92 61 28 31 33 9 12 347 95 7 343 342 341 343 348 353 355 351 352 349 348 355 345 291 208 200 195 195 196 196 194 191 192 194 196 202 206 212 210 206 204 205
152 188 291 16 4 62 70 35 353 19 333 335 341 337 329 327 350 349 343 343 342 340 334 336 324 287 228 204 199 195 195 194 196 197 195 194 200 201 206 207 205 203 202 204
282 214 62 124 29 37 71 57 24 353 343 340 334 325 306 69 1 346 339 336 334 331 328 335 318 265 243 217 205 195 200 202 204 202 198 198 202 203 205 206 204 201 200 201
332 64 122 172 18 329 325 67 22 353 346 343 341 332 106 352 350 339 331 327 326 324 323 328 330 297 248 221 213 203 203 203 202 202 202 201 203 204 205 203 199 197 196 195
339 54 52 41 328 326 201 226 11 355 344 342 344 350 320 329 328 328 326 323 323 320 318 315 313 294 257 232 213 207 208 209 209 206 206 204 203 202 201 200 196 191 190 193
8 53 102 357 333 319 246 340 340 338 334 335 328 307 304 313 318 322 323 322 321 317 316 313 303 285 248 229 220 217 215 214 209 205 205 203 200 200 196 193 189 186 186 185
332 354 46 0 27 37 321 319 325 328 327 322 317 314 313 316 318 325 327 328 328 324 323 320 306 282 252 235 224 221 216 210 207 202 200 201 202 196 193 187 183 181 182 184
6 22 352 17 79 13 342 328 328 325 324 322 317 317 318 317 320 323 326 326 325 324 325 320 305 284 269 252 228 218 207 200 197 196 198 199 198 192 185 183 181 177 182 179
318 91 338 200 227 352 342 332 329 327 322 321 318 319 318 321 325 327 327 326 328 329 326 318 305 275 254 250 228 213 201 197 195 196 192 192 192 188 183 180 181 181 176 176
269 24 345 89 330 334 330 330 330 328 323 323 323 321 322 323 327 327 332 330 334 328 326 327 314 276 248 235 213 204 194 192 190 188 187 184 184 182 182 185 186 178 175 179
9 352 321 307 321 326 328 331 330 329 328 329 327 323 325 324 329 333 331 339 340 337 335 338 338 296 243 217 211 205 187 184 184 183 179 178 173 170 179 173 169 174 177 174
294 315 306 302 315 329 330 330 329 329 330 327 329 328 331 330 331 330 339 347 347 342 344 355 1 331 245 219 211 203 190 180 175 174 163 164 164 156 147 155 159 157 154 158
298 335 331 346 325 331 330 333 335 335 335 336 337 344 343 341 345 347 351 352 350 349 356 18 28 58 165 188 194 193 186 181 177 173 168 161 159 156 155 149 141 140 142 146
316 323 302 314 333 342 349 352 352 354 354 359 3 357 358 354 354 355 359 2 360 5 18 38 66 85 146 171 169 162 162 165 166 163 159 160 159 151 148 145 141 139 140 144
324 330 331 330 337 352 358 2 360 359 0 359 2 4 5 5 6 9 13 18 29 29 39 51 69 79 115 167 167 163 161 158 156 153 152 153 152 153 154 152 148 152 157 155
331 335 337 341 347 351 356 1 2 2 3 3 7 9 15 23 24 25 29 32 39 46 52 59 64 79 105 136 152 152 154 158 161 159 157 156 156 155 155 153 152 153 147 142
338 331 331 332 335 342 352 2 5 8 10 9 15 19 24 30 30 32 38 51 54 51 48 50 64 89 110 130 150 155 157 160 160 158 156 153 154 154 151 147 148 151 149 145
355 348 346 346 345 347 351 356 4 9 11 16 22 25 26 28 32 33 37 42 44 47 43 45 61 84 103 127 147 153 154 155 152 150 150 151 152 151 148 147 146 144 142 140
360 359 357 353 355 355 353 356 360 10 16 16 17 25 27 27 27 35 42 45 40 36 48 59 70 81 94 118 143 148 151 151 152 153 152 151 149 148 147 144 141 145 145 144
353 354 356 357 358 358 358 356 358 3 10 15 18 20 23 26 34 35 43 38 31 30 40 54 69 90 104 126 144 145 149 147 147 147 149 149 150 148 144 145 148 145 145 139
350 348 353 355 356 359 359 360 1 2 5 12 21 33 45 41 53 47 46 42 36 40 46 51 62 85 116 138 142 148 149 147 147 150 149 149 145 143 147 150 148 142 140 133
345 344 344 351 354 354 358 3 8 8 11 13 20 35 51 52 57 56 48 33 40 53 63 64 71 99 131 139 142 144 145 149 150 152 151 147 148 150 149 145 145 144 146 138
345 351 344 344 348 352 359 3 4 8 10 10 10 18 25 38 50 64 68 48 32 34 47 42 55 98 138 144 145 148 148 149 151 150 148 151 153 153 156 155 159 156 156 182
345 353 347 346 350 351 353 356 359 1 6 5 4 357 358 8 12 10 4 6 13 22 37 61 83 116 138 143 147 150 152 153 153 151 151 154 157 161 166 169 185 198 229 288
347 350 341 344 345 348 1 351 350 6 357 3 357 357 355 350 344 338 333 338 351 9 31 65 93 117 133 143 149 154 156 156 157 156 165 168 171 182 197 214 235 260 283 283
341 337 343 344 339 348 360 348 349 356 13 353 351 350 353 355 356 353 352 347 339 342 9 71 130 140 147 151 155 158 162 165 170 171 179 189 199 216 227 239 259 279 286 290
Height
1356 1364 1367 1367 1366 1361 1350 1358 1331 1319 1330 1377 1374 1370 1367 1365 1362 1359 1356 1356 1355 1352 1348 1347 1348 1348 1349 1352 1355 1358 1361 1366 1371 1379 1383 1389 1397 1404 1409 1415 1421 1429 1436 1443
1353 1365 1368 1377 1377 1370 1374 1376 1362 1354 1359 1382 1381 1378 1372 1369 1365 1363 1360 1359 1356 1356 1352 1348 1347 1348 1349 1350 1352 1353 1356 1362 1369 1373 1378 1384 1392 1399 1405 1410 1416 1423 1430 1437
1361 1364 1353 1362 1395 1396 1402 1404 1395 1389 1396 1388 1384 1380 1378 1374 1373 1367 1362 1360 1357 1355 1352 1349 1347 1347 1347 1347 1349 1352 1355 1359 1363 1367 1373 1380 1387 1393 1398 1404 1409 1416 1424 1433
1356 1359 1366 1412 1408 1404 1408 1411 1414 1409 1402 1395 1385 1379 1370 1376 1374 1371 1366 1360 1356 1353 1347 1345 1344 1344 1345 1345 1347 1350 1353 1355 1359 1364 1370 1375 1382 1388 1393 1398 1405 1412 1420 1428
1355 1369 1397 1402 1412 1418 1414 1411 1418 1412 1402 1395 1386 1370 1367 1371 1375 1374 1367 1364 1358 1352 1346 1343 1341 1341 1342 1342 1344 1347 1349 1353 1357 1362 1366 1371 1376 1381 1387 1394 1400 1408 1416 1424
1362 1360 1373 1417 1417 1412 1411 1398 1415 1414 1409 1403 1395 1384 1376 1375 1371 1368 1369 1363 1357 1354 1348 1344 1340 1339 1340 1340 1341 1343 1346 1350 1355 1360 1364 1368 1372 1375 1383 1391 1398 1406 1413 1423
1380 1373 1403 1420 1411 1407 1396 1410 1415 1415 1411 1408 1406 1404 1389 1381 1373 1368 1363 1359 1356 1352 1347 1342 1339 1338 1338 1339 1338 1340 1343 1348 1352 1357 1362 1366 1370 1374 1379 1386 1396 1404 1413 1420
1395 1388 1393 1421 1412 1415 1429 1423 1419 1414 1411 1407 1404 1397 1390 1382 1373 1365 1357 1349 1344 1341 1337 1334 1334 1333 1333 1333 1335 1338 1341 1345 1350 1354 1358 1363 1367 1373 1379 1386 1394 1402 1409 1416
1424 1420 1427 1428 1427 1429 1428 1424 1418 1413 1408 1404 1399 1394 1388 1380 1374 1367 1360 1353 1347 1339 1331 1329 1328 1328 1330 1332 1333 1336 1339 1344 1348 1351 1356 1360 1365 1371 1378 1386 1393 1399 1405 1413
1424 1425 1426 1424 1425 1425 1424 1420 1416 1411 1406 1402 1396 1390 1384 1378 1372 1365 1360 1354 1346 1340 1336 1332 1329 1329 1331 1333 1333 1334 1338 1342 1344 1349 1353 1359 1365 1372 1378 1384 1390 1396 1403 1412
1421 1425 1426 1425 1428 1426 1422 1418 1413 1410 1407 1400 1394 1388 1383 1376 1369 1364 1358 1352 1347 1343 1338 1333 1331 1330 1331 1333 1335 1337 1335 1338 1342 1348 1351 1358 1366 1372 1378 1385 1391 1396 1405 1414
1426 1436 1437 1431 1428 1425 1420 1414 1410 1404 1398 1395 1392 1386 1380 1374 1368 1362 1356 1351 1347 1342 1338 1334 1330 1331 1332 1333 1335 1336 1332 1336 1341 1346 1352 1360 1366 1374 1384 1390 1396 1403 1410 1415
1439 1438 1435 1432 1429 1425 1419 1413 1407 1402 1396 1391 1387 1383 1377 1371 1368 1363 1356 1350 1345 1342 1337 1333 1331 1331 1332 1332 1334 1335 1335 1338 1342 1348 1354 1361 1370 1376 1383 1394 1400 1406 1411 1417
1438 1436 1432 1430 1429 1424 1418 1412 1407 1402 1397 1393 1387 1381 1376 1371 1365 1360 1355 1350 1347 1343 1339 1335 1334 1333 1334 1334 1336 1337 1338 1340 1344 1350 1357 1365 1373 1378 1385 1393 1399 1407 1415 1419
1437 1435 1433 1429 1426 1423 1418 1412 1406 1401 1395 1390 1385 1380 1374 1369 1364 1359 1355 1352 1349 1347 1343 1339 1337 1338 1338 1338 1340 1341 1342 1345 1349 1355 1359 1367 1376 1380 1388 1396 1401 1407 1414 1420
1435 1432 1430 1428 1425 1421 1417 1414 1409 1402 1397 1390 1385 1380 1374 1370 1366 1362 1359 1356 1353 1351 1347 1343 1343 1343 1342 1343 1343 1345 1347 1349 1353 1358 1366 1372 1377 1383 1391 1397 1403 1408 1414 1418
1435 1431 1428 1425 1423 1421 1418 1415 1410 1406 1399 1394 1387 1382 1377 1373 1371 1367 1364 1362 1359 1355 1352 1350 1348 1348 1347 1348 1349 1351 1353 1357 1362 1366 1370 1375 1382 1389 1397 1400 1404 1413 1417 1420
1436 1433 1430 1426 1422 1419 1416 1413 1410 1406 1402 1397 1391 1387 1382 1378 1375 1372 1369 1367 1363 1360 1357 1356 1355 1354 1352 1352 1354 1357 1360 1364 1367 1370 1375 1380 1388 1395 1400 1403 1408 1414 1417 1421
1436 1433 1430 1426 1422 1418 1415 1412 1409 1406 1401 1397 1394 1389 1386 1383 1380 1377 1374 1371 1368 1365 1364 1363 1361 1360 1359 1359 1362 1365 1367 1370 1373 1377 1381 1385 1391 1397 1402 1406 1412 1416 1419 1422
1436 1433 1430 1426 1422 1419 1415 1412 1409 1406 1403 1399 1396 1392 1389 1386 1383 1381 1379 1376 1374 1373 1371 1369 1366 1366 1365 1366 1369 1370 1373 1374 1377 1382 1385 1390 1396 1401 1406 1410 1415 1418 1420 1423
1435 1433 1430 1427 1423 1419 1416 1412 1408 1405 1403 1401 1398 1394 1391 1389 1386 1384 1382 1380 1379 1377 1376 1374 1373 1372 1371 1372 1375 1375 1379 1380 1383 1387 1392 1396 1401 1406 1409 1413 1416 1419 1423 1424
1436 1433 1430 1427 1423 1420 1416 1413 1410 1406 1404 1402 1400 1398 1395 1393 1391 1389 1387 1386 1383 1381 1380 1379 1378 1377 1378 1380 1380 1383 1384 1385 1389 1394 1398 1402 1405 1409 1413 1417 1419 1418 1422 1423
1436 1433 1430 1427 1423 1421 1418 1415 1411 1408 1405 1403 1402 1400 1399 1397 1394 1392 1391 1390 1388 1386 1385 1385 1384 1384 1383 1384 1386 1387 1388 1391 1395 1400 1403 1405 1409 1412 1415 1416 1419 1419 1420 1421
1434 1432 1429 1426 1423 1421 1418 1415 1413 1410 1407 1405 1404 1402 1401 1399 1398 1397 1395 1393 1391 1389 1389 1389 1388 1388 1388 1389 1390 1392 1393 1397 1401 1404 1406 1408 1411 1413 1416 1416 1419 1419 1420 1421
1433 1431 1429 1426 1424 1421 1418 1416 1414 1411 1409 1407 1405 1403 1402 1400 1399 1397 1395 1395 1395 1395 1394 1393 1392 1392 1392 1393 1394 1397 1399 1402 1404 1405 1409 1410 1412 1413 1415 1415 1418 1418 1418 1418
1432 1431 1429 1427 1424 1422 1419 1417 1415 1413 1411 1408 1406 1405 1403 1401 1400 1399 1398 1398 1397 1397 1396 1395 1395 1395 1395 1396 1398 1400 1401 1403 1405 1406 1410 1411 1412 1414 1416 1417 1417 1417 1417 1419
1432 1431 1429 1427 1425 1422 1420 1418 1416 1414 1412 1410 1408 1406 1404 1402 1401 1400 1399 1398 1398 1398 1397 1397 1397 1397 1398 1399 1400 1401 1403 1404 1406 1407 1410 1411 1413 1415 1416 1416 1416 1414 1416 1418